Aqaba, Jordan

10:21 PM EET on February 08, 2016 (GMT +0200)
Aqaba International

Weather History for OJAQ - January, 2013

Change the Weather History Date:

Tuesday, January 1, 2013

  Actual Average (LLET) Record (LLET)
Temperature  
Mean Temperature 59 °F -  
Max Temperature 69 °F 69 °F 82 °F (2005)
Min Temperature 49 °F 52 °F 46 °F (2012)
Degree Days  
Heating Degree Days 6    
Growing Degree Days 9 (Base 50)    
Moisture  
Dew Point 43 °F    
Average Humidity 50    
Maximum Humidity 71    
Minimum Humidity 31    
Precipitation  
Precipitation 0.00 in - - ()
Sea Level Pressure  
Sea Level Pressure 30.04 in    
Wind  
Wind Speed 7 mph ()    
Max Wind Speed 12 mph    
Max Gust Speed -    
Visibility 6.0 miles    
Events      
Averages and records for this station are not official NWS values.
T = Trace of Precipitation, MM = Missing Value Source: Averaged Metar Reports

Daily Weather History Graph

Daily Weather History Graph

Search for Another Location

Airport or City:

Trip Planner

Search our weather history database for the weather conditions in past years. The results will help you decide how hot, cold, wet, or windy it might be!

Date:

Astronomy

Jan. 01, 2013 Rise Set
Actual Time 7:34 AM EEST 5:52 PM EEST
Civil Twilight 7:08 AM EEST 6:18 PM EEST
Nautical Twilight 6:39 AM EEST 6:48 PM EEST
Astronomical Twilight 6:10 AM EEST 7:17 PM EEST
Moon 9:42 PM EEST (1/1) 9:54 AM EEST (1/1)
Length of Visible Light 11h 09m
Length of Day
10h 17m
Waning Gibbous, 86% of the Moon is Illuminated
Jan 1
Waning Gibbous
Jan 5
Last Quarter
Jan 11
New
Jan 19
First Quarter
Jan 27
Full

Hourly Weather History & Observations

Time (EEST) Temp. Dew Point Humidity Pressure Visibility Wind Dir Wind Speed Gust Speed Precip Events Conditions
12:00 AM 57 °F 40 °F 42% 30.04 in 6 mi North 6.9 mph - -  
12:00 AM 57.2 °F 41.0 °F 55% 30.04 in - North 6.9 mph - N/A   Clear
3:00 AM 54 °F 39 °F 46% 30.02 in 6 mi NE 4.6 mph - -  
3:00 AM 53.6 °F 39.2 °F 58% 30.04 in - NE 4.6 mph - N/A   Clear
6:00 AM 52 °F 39 °F 50% 30.02 in 6 mi NNE 6.9 mph - -  
6:00 AM 51.8 °F 39.2 °F 62% 30.04 in - NNE 6.9 mph - N/A   Clear
8:00 AM 50.0 °F 39.2 °F 66% 30.04 in - NNE 6.9 mph - N/A   Clear
9:00 AM 51 °F 40 °F 57% 30.04 in 6 mi NE 4.6 mph - -   Clear
9:00 AM 50.0 °F 41.0 °F 71% 30.06 in - NE 4.6 mph - N/A   Clear
10:00 AM 55.4 °F 42.8 °F 63% 30.06 in - North 6.9 mph - N/A   Clear
11:00 AM 59.0 °F 42.8 °F 55% 30.06 in - North 9.2 mph - N/A   Clear
12:00 PM 64 °F 46 °F 40% 30.05 in 6 mi North 11.5 mph - -   Clear
12:00 PM 64.4 °F 46.4 °F 52% 30.06 in - North 11.5 mph - N/A   Clear
1:00 PM 66.2 °F 46.4 °F 49% 30.04 in - North 11.5 mph - N/A   Clear
2:00 PM 68.0 °F 44.6 °F 43% 30.04 in - North 9.2 mph - N/A   Clear
3:00 PM 68 °F 44 °F 31% 30.00 in 6 mi North 9.2 mph - -   Clear
3:00 PM 68.0 °F 44.6 °F 43% 30.01 in - North 9.2 mph - N/A   Clear
4:00 PM 68.0 °F 44.6 °F 43% 30.01 in - North 9.2 mph - N/A   Clear
6:00 PM 68 °F 46 °F 33% 30.00 in 6 mi North 11.5 mph - -   Clear
6:00 PM 68.0 °F 44.6 °F 43% 30.01 in - North 11.5 mph - N/A   Clear
7:00 PM 66.2 °F 44.6 °F 46% 30.01 in - North 11.5 mph - N/A   Clear
8:00 PM 64.4 °F 44.6 °F 49% 30.06 in - North 11.5 mph - N/A   Clear
9:00 PM 61 °F 42 °F 38% 30.05 in 6 mi North 11.5 mph - -  
9:00 PM 60.8 °F 44.6 °F 55% 30.06 in - North 11.5 mph - N/A   Clear
10:00 PM 60.8 °F 44.6 °F 55% 30.06 in - North 11.5 mph - N/A   Clear
11:00 PM 59.0 °F 44.6 °F 59% 30.06 in - North 11.5 mph - N/A   Clear